Temperature
17 17 17 17 17 17 17 17 17 17 17 17 17 17 17 18 18 18 18 18 18 18 18 18 18 18 18 18 18 18 18 18 18 18 18 18 18 18 18 18 18 18 18
18 17 17 17 17 17 17 17 17 17 17 17 17 17 17 17 17 17 17 17 17 18 18 18 18 18 18 17 17 18 18 18 18 18 18 18 18 18 18 18 18 18 18
18 18 17 17 17 17 17 17 17 17 17 17 17 17 17 17 17 17 17 17 17 17 17 17 17 18 17 17 17 17 18 18 17 17 17 17 17 17 18 18 18 18 18
18 18 18 17 17 17 17 17 17 17 17 17 17 17 17 17 17 17 17 17 17 17 17 17 17 17 17 17 17 17 17 17 17 17 17 17 17 17 17 17 17 17 17
18 18 18 17 17 17 17 17 17 17 17 17 17 17 17 17 17 17 17 17 17 17 17 17 17 17 17 17 17 17 17 17 17 17 17 17 17 17 17 17 17 17 17
18 18 18 17 17 17 17 17 17 17 17 16 16 16 17 17 17 17 17 17 17 17 17 17 17 17 17 17 17 17 17 17 17 17 17 17 17 17 17 17 17 17 17
18 18 17 17 17 17 17 17 17 17 16 16 16 16 16 17 17 17 17 17 17 17 17 17 17 17 17 17 16 17 17 17 17 17 17 17 17 17 17 17 17 17 17
18 18 18 17 17 17 17 17 17 17 16 16 16 16 16 16 16 16 16 16 17 17 17 17 17 17 16 16 16 16 16 17 17 17 17 17 16 16 17 17 17 17 17
18 18 17 17 17 17 17 17 17 16 16 16 16 16 16 16 16 16 16 16 16 16 16 16 16 16 16 16 16 16 16 16 16 16 16 16 16 16 16 16 16 16 16
18 17 17 17 17 17 17 17 16 16 16 16 16 16 16 16 16 16 16 16 16 16 16 16 16 16 16 16 16 16 16 16 16 16 16 16 16 16 16 16 16 16 16
18 17 17 17 17 17 17 16 16 16 16 16 16 16 16 16 16 16 16 16 16 16 16 16 16 16 16 16 16 16 16 16 16 16 16 16 16 16 16 16 16 16 16
18 17 17 17 17 17 17 17 16 16 16 16 16 16 16 16 16 16 16 16 16 16 16 16 16 16 16 16 16 16 16 16 16 16 16 16 16 16 16 16 16 16 16
18 17 17 17 17 17 17 17 16 16 16 16 16 16 16 16 16 16 16 16 16 16 16 16 16 16 16 16 16 16 16 16 16 15 15 16 16 16 16 16 16 16 16
18 18 17 17 17 17 17 16 16 16 16 16 16 16 16 16 16 15 15 15 15 15 15 15 15 15 15 15 15 15 15 15 15 15 15 15 15 15 16 16 16 16 16
18 18 17 17 17 17 17 16 16 16 16 16 16 16 15 15 15 15 15 15 15 15 15 15 15 15 15 15 15 15 15 15 15 15 15 15 15 15 15 15 16 16 16
18 17 17 17 17 17 17 16 16 16 16 16 16 16 15 15 15 15 15 15 15 15 15 15 15 15 15 15 15 15 15 15 15 15 15 15 15 15 15 15 15 15 15
18 18 17 17 17 17 17 17 16 16 16 16 16 15 15 15 15 15 15 15 15 15 15 15 15 15 15 15 15 15 15 15 15 15 15 15 15 15 15 15 15 15 15
18 18 17 17 17 17 17 17 16 16 16 16 15 15 15 15 15 15 15 15 14 14 14 14 14 14 14 14 14 14 14 14 14 15 15 15 15 15 15 15 15 15 15
18 18 17 17 17 17 17 16 16 16 16 16 15 15 15 15 15 15 15 14 14 14 14 14 14 14 14 14 14 14 14 14 14 14 14 14 14 15 15 15 15 14 14
17 17 17 17 17 16 16 16 16 16 16 15 15 15 15 15 15 14 14 14 14 14 14 14 14 14 14 14 14 14 14 14 14 14 14 14 14 14 14 14 14 14 14
17 17 17 17 16 16 16 16 16 16 15 15 15 15 15 15 14 14 14 14 14 14 14 14 14 14 13 13 14 14 14 14 14 14 14 14 14 14 14 14 14 14 14
17 17 17 16 16 16 16 16 16 15 15 15 15 15 14 14 14 14 14 14 14 14 14 14 13 13 13 13 13 13 13 13 13 13 14 14 14 13 14 14 14 14 14
17 16 16 16 16 15 15 15 15 15 15 14 14 14 14 14 14 14 14 14 14 14 13 13 13 13 13 13 13 13 13 13 13 13 13 13 13 13 13 13 13 13 13
16 16 16 16 15 15 15 15 15 15 14 14 14 14 14 14 14 14 14 13 13 13 13 13 13 13 13 13 13 13 13 13 12 12 13 13 13 13 13 13 13 13 13
16 16 16 15 15 15 15 14 14 14 14 14 14 13 13 13 13 13 13 13 13 13 13 13 13 13 13 13 13 13 13 13 12 12 12 12 12 12 12 13 13 13 13
15 15 15 15 15 14 14 14 14 14 13 13 13 13 13 13 13 13 13 13 13 13 13 13 13 13 13 13 13 13 13 12 12 12 12 12 12 12 12 12 12 12 12
Wind_Speed
1 2 7 8 8 9 9 10 10 11 11 11 11 11 12 12 12 12 12 12 12 12 12 12 12 12 12 11 11 11 11 11 10 9 9 8 8 8 8 8 7 6 8
4 5 8 8 8 9 9 10 10 10 11 11 11 11 11 11 11 11 11 11 11 12 12 12 12 12 11 11 11 11 11 11 10 9 8 8 8 8 8 8 7 7 8
6 6 7 8 9 10 10 10 10 10 10 11 11 10 11 11 11 10 11 11 11 11 12 11 12 12 11 11 11 11 11 10 10 9 8 6 7 7 7 7 7 7 7
8 7 8 9 10 10 10 11 10 10 10 10 10 10 10 11 10 10 10 11 11 11 11 11 11 11 11 11 11 10 10 10 9 9 7 5 5 7 7 7 7 6 6
7 8 9 10 10 10 10 10 10 10 10 10 10 10 10 10 10 10 10 10 10 11 10 10 11 11 10 11 10 10 10 10 10 9 7 6 5 6 6 6 6 6 6
7 8 9 10 10 10 10 9 9 9 10 9 9 9 10 10 10 9 10 10 10 9 9 9 10 10 10 10 10 10 10 10 9 7 6 6 5 6 6 7 6 6 6
7 7 9 11 10 10 9 9 9 9 9 9 9 9 9 9 9 9 9 9 9 9 8 9 9 9 10 10 10 10 9 9 8 6 5 5 6 7 7 7 7 7 7
8 7 8 10 10 9 8 8 8 7 7 8 8 9 9 9 9 9 9 9 8 8 8 8 9 9 9 9 10 9 9 8 8 7 5 5 6 7 7 7 7 7 7
7 6 5 7 8 8 8 7 6 6 6 7 7 8 8 8 8 8 8 9 8 8 8 8 8 8 8 9 9 9 9 8 6 5 5 5 7 8 7 7 7 7 7
5 4 4 4 5 5 6 6 6 6 6 6 6 8 8 8 8 8 8 8 8 8 7 7 8 8 8 9 9 9 8 7 6 5 4 5 7 7 7 7 7 7 6
4 3 3 3 3 4 5 4 5 5 5 5 6 6 6 5 5 5 6 7 7 7 7 7 7 7 8 8 8 8 7 5 5 4 4 6 7 7 7 7 7 7 6
4 3 3 3 2 3 4 4 3 3 3 4 4 4 4 4 3 4 4 5 6 6 6 7 7 7 7 6 7 8 6 6 5 4 5 7 7 7 7 7 7 7 7
5 5 4 3 3 3 2 3 2 2 2 2 3 3 4 3 3 3 3 3 4 5 4 5 5 5 5 4 5 6 6 6 5 4 5 7 8 8 8 7 7 7 7
4 4 4 4 3 2 2 2 2 1 1 1 2 4 4 3 2 2 2 2 2 2 3 3 3 4 4 5 5 5 6 5 5 5 5 6 7 7 7 7 7 7 6
4 4 4 4 4 3 3 2 2 1 2 2 3 4 5 3 2 2 2 2 2 3 2 2 3 3 3 4 5 5 4 5 5 5 5 6 7 7 7 7 7 6 6
3 4 4 5 4 4 3 2 2 2 2 3 3 4 5 5 3 2 2 2 2 3 3 3 3 3 2 3 3 4 4 4 5 5 5 5 6 6 7 6 6 6 6
3 3 3 5 4 5 4 3 3 2 3 3 2 3 5 5 5 4 2 2 1 3 4 4 3 3 3 4 4 3 3 4 3 4 4 4 4 6 6 6 5 5 6
4 3 2 4 4 4 4 3 3 3 3 3 3 3 4 5 6 4 3 2 2 4 3 2 3 3 3 3 3 2 2 2 3 3 3 4 3 3 5 5 5 5 5
4 4 3 4 4 4 3 3 3 3 3 3 3 3 3 5 6 5 3 2 3 3 2 2 3 2 2 2 2 2 2 2 2 3 3 3 3 3 3 4 5 5 4
3 4 4 5 4 4 3 3 3 3 3 3 4 4 4 4 5 5 3 3 4 3 2 2 3 3 2 2 2 3 2 2 2 2 1 3 3 3 3 3 3 4 4
4 5 5 5 4 3 3 2 2 2 1 2 3 4 4 5 5 5 3 3 3 3 2 2 2 3 2 2 3 3 3 3 2 2 1 2 2 2 3 3 3 3 3
4 4 5 5 4 3 2 2 2 2 2 2 2 4 5 5 5 5 4 3 2 3 3 2 2 2 1 1 2 2 2 4 3 3 2 2 2 3 3 3 4 4 4
5 4 5 4 4 3 3 3 3 3 3 3 3 2 3 4 4 4 4 4 3 3 2 1 2 3 1 0 1 3 2 2 2 3 3 3 2 2 2 3 4 4 4
4 3 4 4 4 3 4 5 5 4 2 1 1 1 2 4 4 4 4 4 3 2 3 2 2 2 3 1 0 0 2 3 2 1 3 3 3 2 2 2 3 3 3
4 4 4 4 4 4 4 5 5 3 1 1 1 2 2 2 3 4 3 3 3 2 2 2 2 2 2 2 1 1 1 1 1 2 1 2 3 2 2 1 2 2 3
4 4 4 5 4 4 4 5 5 4 3 3 2 2 1 1 1 2 2 2 2 2 2 2 2 2 2 2 2 2 2 2 2 2 2 1 1 2 2 2 2 2 2
Wind_Direction
151 131 102 92 90 89 86 85 82 80 78 77 77 76 76 77 76 78 80 81 81 80 81 80 83 83 83 86 93 96 98 99 98 95 95 98 102 105 105 105 102 105 111
153 124 103 96 95 92 89 87 87 83 81 79 77 77 77 78 77 77 80 82 82 81 82 82 82 82 82 85 88 91 94 97 95 93 91 89 93 99 100 104 106 111 113
128 114 106 100 97 93 89 88 87 84 82 81 79 79 79 80 78 77 80 83 83 83 83 83 84 82 82 83 86 89 91 95 95 90 84 78 83 95 99 102 107 108 111
124 116 107 101 97 94 90 88 87 83 83 84 81 80 80 81 80 78 81 84 83 84 85 83 83 81 81 80 80 83 88 90 89 84 77 72 80 96 101 102 107 111 109
120 117 113 106 101 96 92 90 88 85 84 85 83 83 81 81 81 80 81 84 83 82 83 82 81 81 81 81 80 84 87 85 84 79 74 74 79 97 105 107 108 110 112
124 125 122 114 107 103 97 93 90 89 86 86 83 84 83 84 84 84 83 84 85 83 81 81 82 81 81 82 83 89 90 83 82 78 73 77 85 97 104 109 110 110 113
136 134 129 121 115 109 102 97 93 90 88 87 87 87 87 88 89 86 83 82 85 85 83 83 81 81 79 79 82 86 88 85 84 79 75 75 90 97 99 103 103 106 107
144 138 134 130 124 118 111 106 100 95 92 93 93 91 89 90 91 88 86 84 84 86 86 83 80 79 79 79 81 86 85 86 86 80 70 73 92 97 95 96 99 99 99
138 133 133 137 134 127 121 115 109 102 100 100 100 99 95 93 91 88 88 87 85 86 87 86 81 77 75 78 79 83 86 83 79 79 78 77 91 93 93 92 93 95 95
125 131 131 138 140 138 132 126 119 110 104 103 107 106 102 98 93 90 87 88 87 84 85 85 79 75 72 76 74 79 82 77 73 74 74 84 88 93 94 92 90 91 93
118 125 138 142 150 152 149 142 130 121 112 111 112 112 105 97 91 86 87 85 84 81 80 80 75 67 68 69 65 70 74 72 70 71 80 91 90 94 96 93 89 89 91
148 156 146 153 158 153 153 140 137 130 124 124 120 116 116 115 112 98 83 79 78 75 71 73 66 62 63 57 53 61 67 63 65 65 82 91 92 94 93 90 91 89 89
162 154 158 160 149 144 136 136 134 125 128 134 134 137 127 113 106 100 78 60 59 65 60 61 59 56 59 59 59 71 70 69 67 60 74 90 96 96 92 89 89 88 86
152 158 168 166 158 155 138 135 132 123 121 123 143 141 130 117 111 108 96 84 71 68 66 63 72 62 66 64 73 80 75 76 70 62 67 84 94 94 93 90 88 88 87
159 166 169 167 165 155 141 141 128 135 142 139 123 134 132 123 133 124 111 98 88 84 85 80 73 69 74 78 83 86 85 85 79 75 66 72 80 85 90 90 90 90 88
169 177 170 168 168 149 149 154 151 152 133 119 116 129 134 126 121 119 112 89 82 92 96 97 89 80 72 81 74 81 87 92 86 82 73 69 72 80 82 81 83 88 89
163 160 167 165 157 149 150 157 141 135 117 111 110 122 134 130 121 114 113 101 90 97 95 92 83 79 75 73 70 70 79 85 87 82 76 67 66 72 81 81 82 85 86
139 129 140 142 142 147 144 142 131 118 111 111 116 114 125 130 127 112 114 111 99 95 95 97 86 80 68 66 63 58 66 73 76 88 82 72 66 64 67 69 69 74 80
138 127 100 98 126 132 134 122 112 104 100 98 101 100 114 120 125 114 116 112 99 90 91 105 90 96 92 74 70 57 49 55 55 77 69 69 70 70 70 67 61 59 67
98 98 93 89 94 105 104 85 79 77 74 74 80 86 104 108 112 106 111 102 97 94 81 90 96 81 93 97 81 55 26 20 38 53 64 65 63 67 83 79 65 51 53
80 85 82 80 74 90 95 99 106 103 88 73 75 79 87 97 104 101 109 103 100 105 113 112 108 89 69 75 74 37 11 11 19 17 34 56 48 59 85 81 73 62 46
84 92 85 84 79 79 95 134 137 129 104 85 59 65 76 90 96 103 110 122 113 103 89 91 105 97 75 83 109 86 20 356 355 7 17 45 28 46 58 68 70 70 67
87 101 104 91 83 81 77 77 76 68 57 45 39 44 50 84 91 91 106 117 124 120 125 122 122 129 157 267 120 135 142 219 315 344 0 21 20 32 37 64 72 73 77
106 102 100 96 83 79 93 98 101 111 117 160 152 73 53 68 80 89 97 110 125 126 132 139 119 125 139 153 357 32 155 158 155 338 341 357 19 34 24 53 66 66 75
103 100 100 90 80 79 91 108 106 91 99 93 85 76 61 48 61 76 86 96 112 126 135 123 114 116 125 138 150 140 86 82 120 151 260 332 5 3 9 26 71 71 74
85 86 88 86 73 71 85 94 104 103 89 88 79 83 69 45 33 50 80 87 101 125 140 144 142 141 140 132 133 136 143 150 164 152 183 235 329 327 344 11 46 62 73
Height
1526 1525 1524 1523 1522 1521 1521 1520 1520 1519 1518 1518 1518 1517 1517 1516 1516 1516 1515 1515 1515 1515 1515 1514 1514 1514 1514 1515 1515 1515 1516 1517 1517 1517 1518 1519 1519 1519 1520 1520 1521 1521 1521
1527 1526 1525 1524 1523 1522 1522 1521 1520 1520 1519 1519 1519 1518 1518 1517 1517 1517 1517 1516 1516 1516 1516 1516 1516 1516 1516 1516 1516 1516 1517 1517 1518 1518 1518 1519 1519 1520 1520 1520 1521 1521 1521
1527 1526 1526 1525 1524 1523 1522 1522 1521 1521 1520 1520 1519 1519 1519 1518 1518 1518 1518 1518 1518 1517 1517 1517 1517 1517 1517 1517 1517 1517 1518 1518 1518 1518 1519 1519 1520 1520 1520 1520 1521 1521 1521
1528 1527 1527 1526 1525 1524 1523 1523 1522 1522 1521 1521 1520 1520 1520 1519 1519 1519 1519 1519 1519 1519 1519 1518 1518 1518 1518 1518 1518 1519 1519 1519 1519 1519 1519 1519 1520 1520 1520 1520 1521 1521 1521
1528 1528 1527 1527 1526 1525 1524 1524 1523 1523 1522 1522 1521 1521 1521 1521 1520 1520 1520 1520 1520 1520 1520 1520 1520 1519 1520 1519 1519 1520 1520 1520 1519 1519 1520 1520 1520 1520 1520 1520 1520 1521 1521
1529 1529 1528 1527 1527 1526 1526 1525 1524 1524 1523 1523 1522 1522 1522 1522 1521 1521 1521 1521 1521 1521 1521 1521 1521 1521 1521 1521 1521 1521 1521 1521 1521 1520 1521 1521 1521 1521 1521 1521 1521 1521 1521
1529 1529 1529 1528 1528 1527 1527 1526 1525 1525 1524 1524 1523 1523 1523 1522 1522 1522 1522 1522 1522 1522 1522 1522 1522 1522 1522 1522 1522 1522 1522 1522 1522 1522 1521 1521 1521 1521 1522 1521 1521 1521 1521
1530 1530 1530 1529 1529 1528 1528 1527 1526 1526 1525 1525 1524 1524 1524 1523 1523 1523 1523 1523 1523 1522 1522 1523 1523 1523 1523 1523 1523 1523 1523 1523 1523 1523 1522 1522 1522 1522 1522 1522 1522 1521 1521
1531 1531 1531 1530 1530 1529 1528 1528 1527 1527 1526 1525 1525 1525 1524 1524 1524 1524 1524 1524 1523 1523 1523 1523 1524 1524 1524 1524 1524 1524 1524 1524 1524 1524 1524 1523 1523 1523 1523 1522 1522 1522 1522
1532 1531 1531 1531 1530 1530 1529 1528 1528 1528 1527 1526 1526 1526 1525 1525 1525 1525 1525 1525 1524 1524 1524 1524 1525 1525 1525 1525 1525 1525 1525 1525 1525 1525 1524 1524 1524 1523 1523 1523 1522 1522 1522
1532 1532 1531 1531 1530 1530 1529 1529 1529 1528 1528 1527 1527 1527 1526 1526 1526 1525 1525 1525 1525 1525 1525 1525 1526 1526 1526 1526 1526 1526 1526 1526 1526 1525 1525 1525 1525 1524 1524 1523 1523 1522 1522
1532 1532 1532 1531 1531 1530 1530 1529 1529 1529 1528 1528 1528 1527 1527 1527 1526 1526 1526 1526 1526 1526 1526 1526 1526 1526 1527 1527 1527 1527 1527 1527 1526 1526 1526 1526 1525 1525 1524 1524 1523 1523 1522
1531 1531 1531 1531 1531 1530 1530 1530 1529 1529 1529 1528 1528 1528 1528 1527 1527 1527 1527 1527 1527 1527 1527 1527 1527 1527 1528 1528 1528 1528 1527 1527 1527 1527 1526 1526 1526 1525 1525 1524 1524 1523 1522
1531 1531 1531 1531 1530 1530 1530 1530 1529 1529 1529 1529 1528 1528 1528 1528 1528 1527 1527 1527 1527 1527 1527 1527 1528 1528 1528 1528 1528 1528 1528 1528 1528 1527 1527 1527 1526 1526 1525 1525 1524 1523 1523
1531 1530 1530 1530 1530 1530 1530 1530 1529 1529 1529 1529 1529 1529 1529 1528 1528 1528 1528 1528 1528 1528 1528 1528 1528 1528 1528 1529 1529 1529 1529 1529 1528 1528 1527 1527 1527 1526 1526 1525 1525 1524 1523
1530 1530 1530 1530 1530 1529 1529 1529 1529 1529 1529 1529 1529 1529 1529 1529 1528 1528 1528 1528 1528 1528 1528 1528 1528 1528 1529 1529 1529 1529 1529 1529 1529 1529 1528 1528 1527 1527 1526 1526 1525 1525 1524
1529 1529 1529 1529 1529 1528 1529 1529 1529 1529 1529 1529 1529 1529 1529 1529 1528 1528 1528 1528 1528 1528 1528 1528 1529 1529 1529 1529 1529 1530 1530 1529 1529 1529 1529 1528 1528 1527 1527 1526 1526 1525 1524
1528 1528 1528 1528 1528 1528 1528 1528 1528 1528 1528 1528 1528 1528 1528 1528 1528 1528 1528 1528 1528 1528 1528 1528 1529 1529 1529 1529 1529 1530 1530 1530 1530 1529 1529 1529 1528 1528 1527 1527 1526 1526 1525
1527 1527 1527 1527 1527 1527 1527 1527 1528 1528 1528 1528 1528 1528 1528 1528 1528 1528 1528 1528 1528 1528 1528 1528 1528 1529 1529 1529 1529 1530 1530 1530 1530 1530 1529 1529 1528 1528 1528 1527 1527 1526 1526
1526 1526 1526 1526 1526 1526 1526 1526 1527 1527 1527 1528 1528 1528 1528 1528 1528 1527 1527 1527 1528 1528 1528 1528 1528 1528 1529 1529 1529 1529 1530 1530 1530 1529 1529 1529 1528 1528 1528 1527 1527 1526 1526
1526 1525 1525 1525 1526 1526 1526 1526 1526 1526 1526 1527 1527 1527 1528 1528 1527 1527 1527 1527 1527 1527 1528 1528 1528 1528 1528 1528 1529 1529 1529 1530 1530 1529 1529 1529 1528 1528 1527 1527 1527 1526 1526
1524 1525 1525 1525 1525 1525 1525 1525 1525 1525 1525 1526 1527 1527 1527 1527 1527 1527 1527 1527 1527 1527 1527 1527 1527 1527 1528 1528 1529 1528 1529 1530 1529 1529 1529 1528 1528 1528 1527 1527 1527 1526 1526
1524 1524 1524 1524 1524 1524 1525 1525 1524 1525 1525 1525 1526 1526 1526 1526 1526 1526 1526 1526 1526 1526 1526 1527 1527 1527 1527 1528 1528 1529 1529 1528 1529 1529 1528 1528 1528 1528 1527 1527 1527 1526 1526
1524 1525 1525 1524 1524 1524 1524 1524 1523 1523 1523 1523 1524 1524 1525 1525 1525 1525 1525 1525 1525 1525 1526 1526 1526 1526 1526 1526 1527 1527 1528 1528 1528 1528 1528 1528 1527 1527 1527 1527 1526 1526 1526
1524 1524 1525 1524 1524 1523 1523 1522 1522 1523 1523 1523 1524 1524 1524 1524 1524 1524 1524 1524 1524 1524 1525 1525 1525 1525 1525 1525 1525 1526 1526 1527 1527 1527 1527 1527 1527 1527 1526 1526 1526 1526 1525
1524 1524 1524 1524 1524 1523 1523 1522 1522 1523 1522 1523 1523 1522 1522 1522 1523 1523 1523 1523 1523 1523 1524 1524 1524 1524 1524 1524 1524 1525 1525 1525 1525 1525 1525 1525 1525 1526 1526 1525 1525 1525 1525